TimeEST,TemperatureF,Dew PointF,Humidity,Sea Level PressureIn,VisibilityMPH,Wind Direction,Wind SpeedMPH,Gust SpeedMPH,PrecipitationIn,Events,Conditions,WindDirDegrees,DateUTC
12:15 AM,48.2,37.4,66,30.33,10.0,NNE,6.9,-,N/A,,Clear,20,2013-01-19 05:15:00
12:35 AM,48.2,37.4,66,30.32,10.0,NNE,6.9,-,N/A,,Clear,20,2013-01-19 05:35:00
12:55 AM,48.2,37.4,66,30.32,10.0,NNE,8.1,-,N/A,,Clear,30,2013-01-19 05:55:00
1:15 AM,48.2,37.4,66,30.31,10.0,NNE,5.8,-,N/A,,Clear,30,2013-01-19 06:15:00
1:35 AM,50.0,37.4,62,30.31,10.0,NNE,8.1,-,N/A,,Clear,30,2013-01-19 06:35:00
1:55 AM,50.0,37.4,62,30.31,10.0,NNE,8.1,-,N/A,,Clear,20,2013-01-19 06:55:00
2:15 AM,50.0,39.2,66,30.31,10.0,NNE,9.2,-,N/A,,Clear,20,2013-01-19 07:15:00
2:35 AM,50.0,39.2,66,30.30,10.0,NNE,8.1,-,N/A,,Clear,30,2013-01-19 07:35:00
2:55 AM,50.0,39.2,66,30.30,10.0,NNE,6.9,-,N/A,,Clear,30,2013-01-19 07:55:00
3:15 AM,50.0,39.2,66,30.29,10.0,NNE,5.8,-,N/A,,Clear,30,2013-01-19 08:15:00
3:35 AM,50.0,39.2,66,30.29,10.0,NNE,6.9,-,N/A,,Clear,30,2013-01-19 08:35:00
3:55 AM,50.0,39.2,66,30.30,10.0,NNE,6.9,-,N/A,,Clear,30,2013-01-19 08:55:00
4:15 AM,50.0,39.2,66,30.29,10.0,NNE,5.8,-,N/A,,Clear,20,2013-01-19 09:15:00
4:35 AM,50.0,39.2,66,30.29,10.0,NE,5.8,-,N/A,,Clear,40,2013-01-19 09:35:00
4:55 AM,48.2,39.2,71,30.30,10.0,NNE,5.8,-,N/A,,Clear,20,2013-01-19 09:55:00
5:15 AM,48.2,39.2,71,30.30,10.0,NNE,6.9,-,N/A,,Clear,30,2013-01-19 10:15:00
5:35 AM,48.2,39.2,71,30.30,10.0,NNE,8.1,-,N/A,,Clear,20,2013-01-19 10:35:00
5:55 AM,48.2,39.2,71,30.30,10.0,NNE,6.9,-,N/A,,Clear,20,2013-01-19 10:55:00
6:15 AM,48.2,39.2,71,30.30,10.0,NNE,6.9,-,N/A,,Clear,20,2013-01-19 11:15:00
6:35 AM,48.2,39.2,71,30.30,10.0,NNE,8.1,-,N/A,,Clear,20,2013-01-19 11:35:00
6:47 AM,48.2,39.2,71,30.31,10.0,NNE,8.1,-,N/A,,Partly Cloudy,20,2013-01-19 11:47:00
7:50 AM,48.2,39.2,71,30.32,10.0,NNE,6.9,-,N/A,,Partly Cloudy,20,2013-01-19 12:50:00
8:50 AM,51.8,39.2,62,30.34,10.0,NNE,5.8,-,N/A,,Scattered Clouds,30,2013-01-19 13:50:00
9:50 AM,55.4,42.8,63,30.35,10.0,NNE,9.2,-,N/A,,Partly Cloudy,20,2013-01-19 14:50:00
10:50 AM,62.6,44.6,52,30.33,10.0,NNE,9.2,-,N/A,,Partly Cloudy,20,2013-01-19 15:50:00
11:50 AM,66.2,46.4,49,30.31,10.0,NNE,6.9,-,N/A,,Partly Cloudy,20,2013-01-19 16:50:00
12:50 PM,69.8,48.2,46,30.26,10.0,NE,10.4,-,N/A,,Partly Cloudy,50,2013-01-19 17:50:00
1:50 PM,73.4,53.6,50,30.21,10.0,NNE,6.9,-,N/A,,Partly Cloudy,30,2013-01-19 18:50:00
2:50 PM,73.4,48.2,41,30.19,10.0,NE,5.8,-,N/A,,Scattered Clouds,50,2013-01-19 19:50:00
3:50 PM,73.4,53.6,50,30.18,10.0,ENE,6.9,-,N/A,,Scattered Clouds,60,2013-01-19 20:50:00
4:50 PM,71.6,53.6,53,30.19,10.0,ENE,6.9,-,N/A,,Scattered Clouds,70,2013-01-19 21:50:00
5:50 PM,68.0,55.4,64,30.20,10.0,NE,6.9,-,N/A,,Scattered Clouds,40,2013-01-19 22:50:00
6:50 PM,64.4,55.4,73,30.22,10.0,NE,6.9,-,N/A,,Scattered Clouds,40,2013-01-19 23:50:00
7:55 PM,60.8,48.2,63,30.22,10.0,NE,5.8,-,N/A,,Mostly Cloudy,40,2013-01-20 00:55:00
8:15 PM,60.8,48.2,63,30.22,10.0,NNE,5.8,-,N/A,,Overcast,30,2013-01-20 01:15:00
8:35 PM,59.0,48.2,67,30.23,10.0,NE,5.8,-,N/A,,Mostly Cloudy,40,2013-01-20 01:35:00
8:55 PM,59.0,48.2,67,30.23,10.0,NNE,3.5,-,N/A,,Mostly Cloudy,30,2013-01-20 01:55:00
9:15 PM,57.2,48.2,72,30.22,10.0,NE,6.9,-,N/A,,Mostly Cloudy,40,2013-01-20 02:15:00
9:35 PM,57.2,48.2,72,30.22,10.0,NNE,4.6,-,N/A,,Overcast,30,2013-01-20 02:35:00
9:55 PM,57.2,50.0,77,30.22,10.0,NNE,5.8,-,N/A,,Overcast,30,2013-01-20 02:55:00
10:15 PM,57.2,50.0,77,30.22,10.0,NNE,5.8,-,N/A,,Overcast,20,2013-01-20 03:15:00
10:35 PM,57.2,50.0,77,30.22,10.0,NNE,4.6,-,N/A,,Overcast,20,2013-01-20 03:35:00
10:55 PM,57.2,50.0,77,30.21,10.0,NNE,6.9,-,N/A,,Overcast,30,2013-01-20 03:55:00
11:15 PM,57.2,50.0,77,30.21,10.0,NNE,6.9,-,N/A,,Overcast,20,2013-01-20 04:15:00
11:35 PM,57.2,50.0,77,30.21,10.0,NNE,4.6,-,N/A,,Overcast,30,2013-01-20 04:35:00
11:55 PM,57.2,50.0,77,30.21,10.0,NNE,5.8,-,N/A,,Overcast,30,2013-01-20 04:55:00